Location: *
(46.3500°N, 10.9000°E)
Time: 21:40:23
(UTC+00:00)

A-11 Canister half - Pass Details

Date: 29 April 2021
Orbit: 1526 x 1682 km, 47.3° (Epoch: 13 May)

Event Time Altitude Azimuth Distance (km) Brightness Sun altitude
Rises 10:03:41 0° 189° (S) 4,763 12.0 55.0°
Reaches altitude 10° 10:07:33 10° 176° (S) 3,808 11.8 55.4°
Maximum altitude 10:14:38 23° 129° (SE) 2,937 11.5 55.9°
Drops below altitude 10° 10:21:52 10° 81° (E) 3,908 11.4 56.4°
Sets 10:25:52 0° 69° (ENE) 4,917 11.7 56.7°
